Regional Weather Roundup
Issued by NWS

Home | Current Version | Previous Version | Graphics & Text | Print | Product List | Glossary On
Versions: 1 2 3 4 5 6 7 8 9 10 11 12 13 14 15 16 17 18 19 20 21 22 23 24 25 26 27 28 29 30 31 32 33 34 35 36 37 38 39 40 41 42 43 44 45 46 47 48 49 50
000
ASUS43 KLOT 291121
RWRIL

ILLINOIS REGIONAL WEATHER ROUNDUP
NATIONAL WEATHER SERVICE CHICAGO/ROMEOVILLE IL
600 AM CDT WED JUL 29 2015

NOTE: "FAIR" INDICATES FEW OR NO CLOUDS BELOW 12,000 FEET WITH NO
SIGNIFICANT WEATHER AND/OR OBSTRUCTIONS TO VISIBILITY.

* THESE STATIONS ARE NOT UNDER NWS QUALITY CONTROL. THEY ALSO MAY NOT
  REPORT WEATHER SUCH AS PRECIPITATION OR FOG.

ILZ001-002-007-009-015-016-024-291200-
NORTHWEST ILLINOIS

CITY           SKY/WX    TMP DP  RH WIND       PRES   REMARKS
MOLINE         CLOUDY    74  70  87 W7        29.99S
STERLING*      CLOUDY    73  72  94 W9        29.97R
SAVANNA*       CLOUDY    75  71  87 NW3       29.98R
$$

ILZ003-004-008-010-011-017-018-291200-
NORTH CENTRAL ILLINOIS

CITY           SKY/WX    TMP DP  RH WIND       PRES   REMARKS
ROCKFORD       CLOUDY    75  72  90 W8        29.98R
FREEPORT*      CLOUDY    73  70  90 NW10      29.99R
ROCHELLE*      CLOUDY    72  72  98 CALM      29.97R
DE KALB*       CLOUDY    73  71  95 W9        29.97R
PERU*          CLOUDY    73  72  96 W3        29.97S FOG
$$

ILZ005-006-012>014-019>023-291200-
NORTHEAST ILLINOIS

CITY           SKY/WX    TMP DP  RH WIND       PRES   REMARKS
CHICAGO-OHARE  CLOUDY    75  70  84 W9        29.93R
CHICAGO-MIDWAY CLOUDY    77  71  82 W9        29.93R
AURORA         CLOUDY    73  70  90 SW3       29.95S FOG
LANSING*       CLOUDY    74  70  89 W3        29.95R FOG
JOLIET*        CLOUDY    74  73  97 CALM      29.95R
WAUKEGAN       CLOUDY    75  70  84 W5        29.92S
DUPAGE AIRPORT CLOUDY    73  70  90 SW6       29.95R
KANKAKEE*      DRIZZLE   72  72  98 SW3       29.95R
WHEELING       CLOUDY    76  70  82 SW5       29.94S
MORRIS*        CLOUDY    73  71  95 W5        29.92R
ROMEOVILLE*    CLOUDY    73  72  98 W6        29.96R FOG
NORTHERLY ISL    N/A     76  69  79 W10         N/A
$$

LMZ740>746-291200-
SOUTHERN LAKE MICHIGAN

STATION/POSITION SKY/WX   TEMP    WIND        PRES    VSBY  WAVE
                          AIR SEA DIR/SP/G                  HT/PER
                          (F)     (DEG/KT/KT) (MB)    (MI)  (FT/S)
HARRISON CRIB              76     260/ 12/ 14   N/A
BURNHAM HARBOR             76     240/  7/ 10   N/A
CALUMET HARBOR             75     230/  6/  9   N/A
BURNS HARBOR               77     230/  7/ 10 1013.9F
MICHIGAN CITY              75     230/  7/  8   N/A
MICHIGAN CITY 6N           76 74  270/  6/  8   N/A           1/ 2
ST. JOSEPH                 76 75  270/ 10/ 12   N/A           1
$$

ILZ025>027-034>036-040-047-049-050-058-095>099-291200-
WEST-CENTRAL ILLINOIS

CITY           SKY/WX    TMP DP  RH WIND       PRES   REMARKS
QUINCY         CLOUDY    72  70  93 NW8       30.03R
GALESBURG*     CLOUDY    73  70  91 NW8       30.00R
MACOMB*        CLOUDY    73  70  93 NW9       30.03R
JACKSONVILLE*  CLOUDY    76  72  86 NW8       29.99R
PITTSFIELD*    CLOUDY    75  70  85 NW8       30.03R
$$

ILZ028>032-037-038-041>044-048-051>054-059>061-291200-
CENTRAL ILLINOIS

CITY           SKY/WX    TMP DP  RH WIND       PRES   REMARKS
PONTIAC        CLOUDY    74  73  99 SW3       29.96R
BLOOMINGTON    CLOUDY    73  73 100 S6        29.98R
DECATUR        MOCLDY    74  71  91 S5        29.97F
PEORIA         CLOUDY    76  72  87 CALM      29.97S
LACON*         CLOUDY    72  70  96 CALM      29.96S
LINCOLN*       CLOUDY    75  72  90 CALM      29.96S
SPRINGFIELD    CLOUDY    79  75  87 W6        29.97R HX  83
TAYLORVILLE    MOCLDY    73  73 100 SW3       29.97S FOG
$$

ILZ033-039-045-046-055>057-062-063-291200-
EAST-CENTRAL ILLINOIS

CITY           SKY/WX    TMP DP  RH WIND       PRES   REMARKS
CHAMPAIGN      CLOUDY    73  71  93 S5        29.97S
DANVILLE*      CLOUDY    71  71  99 CALM      29.94S
RANTOUL*       CLOUDY    74  73  96 CALM      29.96R
MATTOON        MOCLDY    75  71  87 CALM      29.98R
PARIS*         CLOUDY    72  71  97 SE3       29.99F
$$

ILZ079-100>102-291200-
SOUTHWEST ILLINOIS

CITY           SKY/WX    TMP DP  RH WIND       PRES   REMARKS
ALTON          PTCLDY    76  76  97 SW3       29.98S FOG
BELLEVILLE     PTCLDY    79  79 100 SW6       29.97S HX  83
CAHOKIA*       PTCLDY    80  75  84 SW3       29.98S HX  85
SPARTA*        CLEAR     78  76  94 CALM      30.00S HX  80
$$

ILZ064>066-069>071-074>076-080>082-084>086-088>090-092>094-291200-
SOUTH-CENTRAL ILLINOIS

CITY           SKY/WX    TMP DP  RH WIND       PRES   REMARKS
CARBONDALE     CLEAR     75  74  96 S5        29.99S
CAIRO*         CLEAR     75  74  95 CALM      30.00S
EFFINGHAM*     MOCLDY    74  72  91 CALM      29.99R FOG
MARION         CLEAR     75  73  94 S3        30.00S
MT. VERNON     CLEAR     75  70  83 SW3       30.00R
CENTRALIA*     CLEAR     77  74  91 W3        29.99R FOG
SALEM*         PTCLDY    78  75  91 CALM      29.99R FOG
METROPOLIS*    CLEAR     74  74 100 CALM      30.01S
$$

ILZ067-068-072-073-078-083-087-091-291200-
SOUTHEAST ILLINOIS

CITY           SKY/WX    TMP DP  RH WIND       PRES   REMARKS
LAWRENCEVILLE  PTCLDY    74  73  97 CALM      29.99R FOG
FLORA*         PTCLDY    76  74  95 SW5       29.98S
FAIRFIELD*     PTCLDY    75  74  96 CALM      29.97S
HARRISBURG*    CLEAR     74  74  98 CALM      30.00S
ROBINSON*      MOCLDY    74  73  97 CALM      30.01R FOG
CARMI*         MOCLDY    75  70  83 MISG      29.98S
$$

ABBREVIATIONS USED IN REMARKS
   TC - TEMPERATURE IN CELSIUS
  WCI - WIND CHILL INDEX
   HX - HEAT INDEX
  VSB - VISIBILITY
$$



USA.gov is the U.S. government's official web portal to all federal, state and local government web resources and services.